Tracking 31027 objects as of 19-Jul-2025
HD Live streaming from Space Station
objects crossing your sky now

COSMOS 2497

Track COSMOS 2497 now!
10-day predictions
COSMOS 2497 is classified as:


NORAD ID: 39762
Int'l Code: 2014-028B
Perigee: 1,484.9 km
Apogee: 1,518.3 km
Inclination: 82.5 °
Period: 115.9 minutes
Semi major axis: 7872 km
RCS: Unknown
Launch date: May 23, 2014
Source: Commonwealth of Independent States (former USSR) (CIS)
Launch site: PLESETSK MISSILE AND SPACE COMPLEX (PKMTR)

COSMOS 2497 is part of the Russian military's Rodnik, or Strela 3M, system designed to relay messages between users posted in remote locations.
Your satellite tracking list
ABS 3
Track 1 satellite(s)




NASA's NSSDC Master Catalog

Two Line Element Set (TLE):
1 39762U 14028B   25199.57649826  .00000027  00000-0  12626-3 0  9994
2 39762  82.4533 319.2342 0021225  83.6218 276.7277 12.42863802506070
Source of the keplerian elements: AFSPC